Regional Weather Roundup
Issued by NWS Huntsville, AL

Home | Current Version | Previous Version | Text Only | Print | Product List | Glossary On
Versions: 1 2 3 4 5 6 7 8 9 10 11 12 13 14 15 16 17 18 19 20 21 22 23 24 25 26 27 28
000
ASUS44 KHUN 211010
RWRHUN

WEATHER ROUNDUP FOR THE TENNESSEE VALLEY
NATIONAL WEATHER SERVICE HUNTSVILLE AL
500 AM CDT SAT APR 21 2018

ALZ001>004-211100-
NORTHWEST ALABAMA

CITY           SKY/WX    TMP DP  RH WIND       PRES   REMARKS
SHOALS AIRPORT FAIR      43  39  86 CALM      30.26S
$$

ALZ005>007-016-211100-
NORTH CENTRAL ALABAMA

CITY           SKY/WX    TMP DP  RH WIND       PRES   REMARKS
DECATUR AP     FAIR      40  39  97 S8        30.28R WCI  34
HUNTSVILLE AP  FAIR      44  41  89 S5        30.27R
MERIDIANVILLE  CLEAR     38  37  94 CALM      30.28R
REDSTONE ARSN  FAIR      44  35  70 SW3       30.27R
VINEMONT AP    FAIR      47  31  52 CALM      30.28R
$$

ALZ008>010-211100-
NORTHEAST ALABAMA

CITY           SKY/WX    TMP DP  RH WIND       PRES   REMARKS
ALBERTVILLE    FAIR      46  36  66 E6        30.26S
FORT PAYNE     FAIR      36  32  87 CALM      30.29R
SCOTTSBORO AP  FAIR      39  39 100 CALM      30.30S
$$

TNZ076-096-097-211100-
SOUTHEASTERN MIDDLE TENNESSEE

CITY           SKY/WX    TMP DP  RH WIND       PRES   REMARKS
TULLAHOMA      CLEAR     37  32  81 CALM      30.28R
WINCHESTER     CLEAR     37  36  93 CALM      30.27F
$$

...SURROUNDING SITES...

CITY           SKY/WX    TMP DP  RH WIND       PRES   REMARKS
ATLANTA        FAIR      49  36  61 E6        30.30S
ANNISTON       FAIR      41  37  86 E3        30.28S
BIRMINGHAM     FAIR      52  34  50 CALM      30.27S
CHATTANOOGA    FAIR      41  37  86 CALM      30.33R
CORINTH        FAIR      41  37  87 CALM      30.24S
DALTON         FAIR      36  36 100 CALM      30.33R
GADSDEN        FAIR      38  38 100 N3        30.28F
GOLDEN TRNGL   FAIR      50  38  63 E10       30.22S
HALEYVILLE     FAIR      41  39  93 E3        30.26F
JACKSON TN     FAIR      49  33  54 E7        30.25F
MEMPHIS        FAIR      51  34  52 E7        30.22S
NASHVILLE      FAIR      44  32  62 NE3       30.30F
OXFORD MS      MOCLDY    50  34  53 E5        30.23S
ROME           FAIR      38  37  97 N3        30.31R
SAVANNAH       CLEAR     41  37  87 CALM      30.25S
SELMER         CLEAR     45  34  65 NE5       30.24S
TUPELO         FAIR      44  37  76 N7        30.23R
TUSCALOOSA     FAIR      45  43  93 NE3       30.23S
$$

...GULF COAST WEATHER...

CITY           SKY/WX    TMP DP  RH WIND       PRES   REMARKS
GULFPORT       FAIR      53  50  89 CALM      30.12F
PASCAGOULA     FAIR      48  46  93 CALM      30.14S
MOBILE         FAIR      54  46  74 MISG      30.15F
GULF SHORES    PTSUNNY   57  52  84 N7        30.14F
PENSACOLA      FAIR      65  56  72 E15       30.14
DESTIN         FAIR      64  50  60 E8        30.17S
PANAMA CITY    FAIR      60  53  79 NE3       30.16F
APPALACHICOLA  CLOUDY    66  62  87 E9G21     30.16R
$$





USA.gov is the U.S. government's official web portal to all federal, state and local government web resources and services.